GFSMW_250_rhum_048.txt.gz
RH
100 100 100 100 99 100 100 100 96 96 97 94 91 92 97 92 93 90 94 99 100 100 99 99 100 100 100 100 96 86 89 90 80 87 90 88 82 87 81 84 80 74 65
100 100 100 100 100 100 100 100 100 100 100 100 96 88 92 98 99 100 100 100 100 100 100 100 98 92 90 86 85 93 100 94 96 93 89 78 86 86 90 89 80 70 56
98 100 100 100 100 100 100 100 100 100 100 100 100 100 100 100 99 95 96 100 100 100 100 94 94 98 100 100 100 100 100 100 100 89 82 90 91 97 97 87 70 56 52
97 95 100 100 100 100 100 100 100 100 100 100 100 100 100 100 100 100 100 100 100 100 100 100 100 100 100 100 100 100 100 89 87 93 98 93 87 82 80 73 61 53 50
90 84 83 99 100 100 100 100 100 100 100 100 100 100 100 100 100 100 100 100 100 100 100 100 100 100 100 100 92 85 91 94 97 100 100 100 88 81 74 64 49 44 42
54 72 76 92 99 100 100 100 100 100 100 100 100 100 100 100 100 100 100 100 100 100 100 100 99 99 94 92 96 96 98 100 100 100 98 89 77 75 61 50 36 32 48
66 55 69 68 74 86 96 100 100 100 100 100 100 100 100 100 100 100 100 100 100 100 100 100 99 100 100 100 100 100 100 100 98 98 86 75 72 58 49 34 26 37 35
75 71 66 62 62 67 72 69 85 100 100 100 100 100 100 100 100 100 100 100 100 100 100 100 100 100 100 100 100 100 100 100 94 86 71 64 56 45 32 35 38 28 30
60 51 59 65 60 56 61 67 67 80 94 99 100 100 100 100 100 100 100 100 100 100 100 100 100 100 100 100 100 100 99 98 76 70 62 49 36 39 47 48 30 34 30
76 55 24 29 41 55 59 62 64 68 75 81 87 96 100 100 100 100 100 100 100 100 100 100 100 100 100 99 98 92 85 73 61 48 38 33 42 56 54 39 34 30 38
33 40 46 25 20 31 42 54 66 72 78 81 87 88 97 100 100 100 100 100 100 100 100 100 100 99 92 85 82 72 58 44 33 33 37 43 60 50 57 38 31 36 43
37 36 32 30 23 18 18 24 34 44 54 62 66 72 85 93 99 100 100 100 100 94 100 93 85 81 71 61 45 38 40 30 32 46 68 67 59 54 40 34 37 43 44
20 21 22 23 20 21 27 26 22 20 22 23 26 30 38 48 60 64 66 61 57 57 58 52 45 57 45 42 43 40 37 47 68 85 53 57 41 35 34 40 43 45 48
20 22 20 17 17 18 17 18 18 17 18 20 23 26 29 25 23 27 30 32 33 48 63 68 58 57 52 57 50 55 72 81 79 48 45 38 35 34 45 44 47 49 52
18 20 19 18 18 20 23 24 19 19 18 18 20 23 35 33 37 41 55 62 61 77 63 76 75 64 65 69 60 90 81 78 60 31 35 33 36 42 45 49 51 55 57
16 16 15 14 15 15 17 22 28 35 43 33 44 55 52 38 57 59 74 86 89 93 96 100 90 82 77 65 70 82 73 61 38 37 34 39 43 42 46 50 58 63 65
20 19 18 17 16 16 17 18 30 36 51 64 62 63 68 72 100 100 100 100 100 100 100 100 99 97 78 79 81 61 40 42 36 36 38 45 46 48 52 61 66 68 75
20 19 19 19 19 19 18 18 18 19 35 52 54 47 45 68 95 84 98 100 93 98 100 100 87 95 85 77 58 46 45 39 38 40 43 48 54 58 62 66 75 83 86
16 16 16 17 17 18 20 20 20 20 22 22 23 26 34 68 100 97 98 100 90 100 100 92 100 86 81 64 63 58 46 48 46 43 50 54 59 62 65 73 81 83 85
19 18 18 18 19 18 18 20 20 23 24 25 27 31 38 74 65 97 100 100 100 89 100 100 92 95 75 69 65 60 72 64 62 58 54 52 54 59 64 70 76 84 83
25 22 21 20 19 20 22 22 23 23 28 42 66 92 93 97 100 100 100 100 99 100 100 100 100 86 73 69 63 70 77 72 67 64 60 58 57 61 66 69 72 69 66
36 34 28 25 25 24 23 23 25 33 42 56 60 83 99 100 100 100 100 100 100 100 100 96 94 88 76 68 67 80 84 73 61 57 59 59 57 58 60 61 62 65 67
61 53 46 39 35 34 38 42 38 48 62 88 100 100 100 100 100 100 100 100 100 97 100 100 100 89 82 73 72 79 79 67 59 56 57 61 62 63 64 65 67 70 75
81 77 70 65 64 54 51 51 59 67 74 86 94 95 99 100 100 100 100 100 100 100 100 99 94 95 95 81 78 75 75 70 65 64 62 65 68 67 68 70 73 73 74
87 85 79 86 85 71 67 75 79 71 72 82 89 94 99 99 100 100 100 100 100 100 97 100 100 99 96 88 81 82 78 77 75 69 68 68 70 69 68 67 71 78 82
99 96 100 98 94 96 98 99 99 100 99 99 97 98 100 100 100 100 100 100 100 100 100 100 99 100 86 89 88 86 90 88 78 72 73 72 75 76 76 71 76 84 83

GFSMW_250_rhum_051.txt.gz
RH
98 91 90 100 100 100 100 100 93 88 78 95 100 96 92 92 94 95 98 98 97 92 100 100 100 100 100 100 99 92 87 88 77 94 100 96 85 94 90 95 100 89 86
100 100 100 99 100 100 100 100 100 100 91 78 98 100 95 93 97 100 98 94 100 100 100 100 100 100 100 97 96 90 93 93 100 89 84 97 100 92 97 100 96 81 85
100 100 100 100 100 100 100 100 100 100 100 96 100 100 100 100 100 100 100 100 100 100 100 100 99 99 100 100 100 100 100 100 100 97 95 97 99 100 100 99 92 85 82
100 100 100 100 100 100 100 100 100 100 100 100 99 100 100 100 100 100 100 100 100 98 92 90 99 100 100 100 100 100 100 100 100 100 95 97 99 100 100 100 99 83 76
100 100 100 100 100 100 100 100 100 100 100 100 100 100 100 100 100 100 96 88 86 95 100 100 100 100 100 100 100 100 100 100 96 100 100 100 99 94 85 88 76 77 63
98 100 100 100 100 100 100 100 100 100 100 100 100 100 100 100 100 100 100 100 100 100 100 100 100 100 100 100 100 100 100 100 100 100 100 100 97 95 81 81 64 56 43
39 94 100 100 100 100 100 100 100 100 100 100 100 100 100 100 100 100 100 100 100 100 100 100 100 100 100 100 100 100 100 100 100 100 100 98 100 85 77 58 46 34 38
50 45 74 100 100 99 100 100 100 100 100 100 100 100 100 100 100 100 100 100 100 100 100 100 100 100 100 100 100 100 100 100 100 100 95 93 82 73 51 37 31 27 40
98 71 44 40 85 100 97 98 100 100 97 98 96 96 100 100 100 100 100 100 100 100 100 100 100 100 100 100 100 100 100 98 100 96 91 79 61 42 32 27 25 29 46
84 99 83 79 49 44 65 86 93 96 100 100 99 100 100 100 100 100 100 100 100 100 100 100 100 100 100 100 100 100 100 98 93 82 64 48 36 29 27 27 28 38 36
50 82 100 73 53 58 53 47 54 67 74 75 75 76 78 79 82 86 91 95 100 100 100 100 100 100 100 100 100 99 94 84 60 49 36 29 26 28 32 34 35 30 24
31 40 53 78 60 38 32 45 50 49 54 67 71 70 72 74 79 87 93 91 100 100 100 98 94 88 81 79 79 73 56 50 35 29 32 28 28 32 36 30 29 28 29
20 22 29 41 61 61 43 28 20 19 26 38 47 54 60 62 57 60 64 63 70 71 68 62 58 54 45 43 43 36 38 36 32 37 29 34 34 33 27 22 25 32 30
17 16 17 19 25 31 36 33 26 22 20 21 22 23 26 31 34 35 38 46 46 46 33 34 35 32 38 43 42 40 53 50 51 45 50 45 41 29 23 27 30 33 40
18 16 16 16 16 18 19 20 20 21 20 19 19 20 20 22 24 28 33 34 30 33 35 42 42 43 55 62 65 79 72 86 62 62 53 46 34 30 27 29 34 41 48
22 19 17 15 15 15 14 15 16 17 18 18 18 19 19 18 18 20 27 38 37 44 57 68 75 100 87 100 100 100 100 78 71 62 52 46 34 39 36 38 43 48 49
21 20 19 18 16 15 15 14 14 14 14 14 15 18 21 22 33 49 74 98 100 100 100 100 100 100 100 99 100 96 100 85 75 62 60 43 43 49 49 48 49 50 53
20 21 21 20 19 19 18 16 16 15 15 16 16 17 20 23 48 78 68 85 100 100 100 100 100 86 100 95 100 100 97 94 74 79 52 52 58 58 57 57 56 56 56
24 24 22 22 21 21 21 21 20 20 20 20 20 20 19 20 27 42 41 30 46 65 67 95 100 95 100 98 100 100 96 86 80 73 59 60 69 63 58 54 53 54 54
27 22 22 21 21 20 20 20 19 20 20 22 23 23 24 24 26 27 30 31 36 74 98 74 100 96 100 100 100 93 96 94 73 65 62 64 74 66 55 51 55 58 58
40 39 29 24 22 21 20 19 19 19 20 23 25 26 27 28 28 29 35 57 93 100 90 85 99 100 100 98 99 100 92 86 76 69 70 73 76 68 60 58 58 60 63
46 60 46 34 30 26 22 21 20 21 21 23 23 25 26 28 31 46 55 91 89 85 100 100 100 95 100 100 100 95 100 88 80 75 79 79 80 74 70 65 64 65 66
45 77 63 56 47 40 35 31 27 26 27 29 29 30 41 49 58 74 81 88 87 93 100 100 100 100 100 100 100 100 93 83 79 87 87 85 94 89 79 75 72 72 75
50 76 79 86 80 62 52 44 41 39 37 36 39 53 54 57 67 74 100 100 100 100 100 100 100 98 100 100 99 100 84 86 84 88 90 86 83 85 90 85 79 80 80
76 79 81 84 85 82 66 62 60 59 67 73 74 72 80 86 88 100 100 100 100 100 100 100 100 100 100 100 100 95 87 91 94 90 91 95 88 82 85 86 85 83 84
91 90 89 85 88 94 85 79 88 90 91 90 91 94 98 99 100 100 100 100 100 100 100 100 100 100 100 100 99 87 99 94 94 91 88 98 89 85 79 79 79 81 76

GFSMW_250_rhum_054.txt.gz
RH
100 100 100 100 100 100 98 100 100 100 100 87 74 67 81 73 75 86 89 92 93 95 92 94 91 96 99 99 100 100 100 100 100 99 100 100 100 100 100 100 89 80 85
100 100 99 100 100 100 92 100 100 100 100 100 100 95 95 95 77 84 95 96 94 96 98 99 100 100 100 100 100 100 100 100 99 97 100 100 100 100 98 88 92 93 99
98 100 100 100 100 100 97 100 100 100 100 100 100 100 99 98 88 80 92 100 100 100 100 100 100 100 100 100 100 100 100 93 100 96 99 96 100 100 100 100 100 97 92
54 90 100 100 98 94 99 97 100 100 100 100 100 100 100 100 100 98 100 100 100 100 100 100 100 100 100 100 96 85 89 100 100 100 100 100 100 100 100 100 96 95 83
20 26 59 99 100 100 98 100 100 100 100 100 100 100 100 100 100 100 100 100 100 100 100 100 100 100 100 97 91 100 100 100 100 100 100 100 100 100 100 96 93 94 80
18 17 21 34 86 100 100 100 100 100 100 100 100 100 100 100 100 100 100 100 100 100 100 100 100 100 99 100 100 100 100 100 100 100 100 100 100 100 85 93 86 90 82
23 20 18 27 36 97 100 100 100 100 100 100 100 100 100 100 100 100 100 100 100 100 100 100 100 100 100 100 100 100 100 100 100 100 100 100 97 92 92 88 83 76 63
30 24 21 25 54 54 99 100 100 100 100 100 100 100 100 100 100 100 100 100 100 100 100 100 100 100 100 100 100 100 100 100 100 100 99 100 98 95 89 80 65 52 45
29 30 30 33 42 72 81 94 100 100 100 100 100 100 100 100 100 100 100 100 100 100 100 100 100 100 100 100 100 100 100 100 100 100 100 100 94 87 76 58 48 38 30
31 39 53 47 47 47 70 86 85 100 100 100 100 100 100 100 100 100 100 100 100 100 100 100 100 100 100 100 100 100 100 100 100 100 99 92 79 60 49 39 35 35 28
29 32 40 59 62 58 44 56 78 74 83 100 100 100 100 100 100 100 100 100 100 100 100 100 100 100 100 100 100 100 100 99 92 87 76 58 51 48 39 40 34 32 29
27 29 31 64 90 84 76 72 49 59 68 93 100 100 100 100 100 100 100 100 100 100 100 100 100 100 99 100 98 97 91 78 71 57 41 49 41 42 63 47 49 36 30
24 26 30 32 36 94 93 73 56 44 42 48 58 76 94 100 100 100 100 100 98 93 93 98 100 100 96 90 94 80 63 62 49 48 41 50 49 62 77 58 58 43 28
24 26 26 27 28 30 40 91 96 56 41 44 45 46 42 39 40 50 60 67 68 79 89 94 89 89 90 78 65 52 48 43 56 55 56 51 68 92 82 72 53 39 33
23 23 23 22 23 23 23 24 28 50 70 56 41 36 29 27 28 29 30 31 34 39 35 44 41 40 38 38 38 32 51 64 58 82 100 77 81 71 83 78 44 39 42
23 22 20 20 20 20 19 19 20 22 26 28 38 47 55 44 40 32 27 29 33 36 35 40 26 33 28 56 56 83 69 76 100 99 100 77 84 74 88 66 44 41 52
19 19 21 23 23 23 22 21 18 17 17 18 19 22 25 27 28 28 27 28 24 22 21 27 32 42 60 64 79 97 93 99 95 100 78 96 69 76 77 65 45 52 59
26 26 26 25 23 22 21 21 21 20 19 17 16 16 16 16 18 17 17 18 18 18 20 28 41 47 63 70 75 99 87 98 94 77 97 89 94 81 79 66 58 57 64
27 27 26 24 23 22 22 21 21 21 21 21 20 18 17 17 16 16 17 18 18 19 20 23 28 38 46 64 45 71 100 100 94 100 98 100 82 89 77 69 64 69 69
33 31 30 28 28 27 26 24 22 22 21 21 21 21 20 20 20 22 22 22 22 22 24 25 26 30 38 47 75 94 93 94 100 100 100 93 90 76 82 68 70 76 80
50 50 34 34 36 31 29 26 24 21 20 19 19 20 21 23 23 23 24 24 26 27 27 29 32 43 51 52 96 94 100 98 100 100 90 97 87 83 72 76 79 82 84
41 47 43 52 47 44 41 36 29 25 22 20 20 20 20 20 20 22 23 25 30 31 31 36 44 66 81 97 100 100 98 100 98 100 99 100 100 85 74 75 85 83 87
51 44 45 50 69 55 52 47 38 33 28 24 22 23 23 23 23 25 26 28 31 32 40 51 72 94 83 100 100 96 100 100 100 100 100 100 91 90 74 78 82 84 82
56 54 59 53 75 78 72 62 52 42 36 33 32 29 29 29 29 32 35 40 44 47 77 81 84 86 95 100 100 100 100 100 100 94 100 99 100 87 81 84 84 84 82
65 54 56 68 71 83 80 75 68 59 52 49 44 51 50 47 48 63 71 74 81 82 86 92 95 100 100 100 100 100 100 100 100 100 100 99 94 76 79 82 78 90 91
70 59 69 79 78 86 81 82 83 83 84 87 85 83 80 80 81 84 90 92 92 88 88 100 100 100 100 100 100 100 100 100 100 100 94 86 83 83 88 85 87 93 85

GFSMW_250_rhum_057.txt.gz
RH
100 100 100 100 100 100 100 100 100 100 100 100 100 95 98 91 81 72 64 65 70 75 93 86 88 90 85 83 94 97 94 99 100 100 99 100 98 94 94 80 84 89 92
100 100 100 100 100 100 100 100 100 100 100 100 100 100 91 92 80 67 71 70 76 86 84 78 85 96 100 100 100 100 100 100 91 100 92 100 97 88 92 92 93 100 100
100 100 100 100 100 100 100 100 100 100 100 100 100 100 100 100 98 88 97 90 89 81 82 86 81 90 100 100 98 100 100 97 100 95 92 87 91 98 100 100 100 100 100
100 100 100 100 100 100 100 100 100 100 100 100 100 100 100 100 92 100 100 100 99 87 83 83 96 99 100 100 100 100 100 100 100 100 100 99 100 100 100 100 100 99 98
86 90 100 100 100 100 100 100 100 100 100 100 100 100 100 100 100 100 100 99 96 100 100 100 100 100 100 100 100 100 100 100 100 100 100 100 100 100 100 100 100 99 89
92 48 83 100 100 100 100 100 100 100 100 100 100 100 100 100 100 100 100 100 100 100 100 100 100 100 100 100 100 100 100 100 100 100 100 100 100 100 100 100 100 100 94
29 62 27 44 89 100 100 100 100 100 100 100 100 100 100 100 100 100 100 100 100 100 100 100 100 100 100 100 100 100 100 100 100 100 100 100 100 100 100 100 100 97 90
25 26 26 28 22 24 45 84 98 94 95 100 100 100 100 100 100 100 100 100 100 100 100 100 100 100 100 100 100 100 100 100 100 100 100 100 100 100 100 100 95 96 78
24 23 24 25 25 22 21 21 28 49 66 71 91 100 100 100 100 100 100 100 100 100 100 100 100 100 100 100 100 100 100 100 100 100 100 100 100 100 100 97 86 77 67
28 26 23 24 24 27 23 20 20 21 25 35 44 62 88 100 100 100 100 100 100 100 100 100 100 100 100 100 100 100 100 100 100 100 100 100 100 100 94 88 77 66 47
26 27 26 24 26 27 28 27 24 23 23 23 25 29 52 77 89 100 99 100 100 100 100 100 100 100 100 100 100 100 100 100 100 100 100 100 100 100 93 74 58 47 39
22 23 23 26 26 29 29 30 29 28 28 27 29 27 42 66 76 81 90 100 100 100 100 100 100 100 100 100 100 100 100 100 100 100 100 100 98 83 62 53 43 46 65
20 23 24 23 26 27 29 31 33 34 35 50 42 35 32 35 49 61 75 93 100 100 100 100 100 100 100 100 100 100 100 100 100 98 98 97 70 49 40 38 48 68 57
21 23 25 24 24 25 27 29 36 38 43 44 53 47 35 28 28 38 62 80 88 91 98 98 100 100 100 100 100 100 96 88 92 77 65 53 46 38 49 83 69 84 77
17 16 17 19 20 21 24 25 28 31 37 59 69 54 47 39 37 26 35 44 53 65 69 78 81 77 75 75 62 59 50 48 47 54 54 37 46 60 63 69 92 84 98
18 18 16 17 18 17 18 19 22 25 28 30 30 34 73 50 35 42 34 37 37 46 50 44 41 50 40 35 34 50 56 54 54 42 40 49 55 72 80 87 81 96 89
21 18 18 20 20 21 22 23 23 24 25 26 26 26 28 29 41 38 33 33 30 30 31 40 46 50 52 65 72 68 57 38 29 37 41 46 69 87 100 83 86 100 98
26 25 23 22 23 22 22 23 24 25 25 24 24 25 26 25 24 23 23 24 24 25 28 34 33 36 40 40 33 32 29 30 32 32 40 61 79 88 96 93 100 94 100
26 27 29 31 28 26 24 24 22 22 22 23 24 25 25 26 26 24 22 21 20 19 20 21 22 22 25 26 25 24 26 27 30 38 44 63 99 76 100 99 99 100 84
26 26 27 28 27 27 26 27 28 27 26 25 24 24 24 24 24 24 25 25 24 23 22 21 20 20 20 21 21 24 25 26 34 53 64 91 100 100 100 100 100 99 99
51 47 42 39 33 31 30 27 25 25 25 23 22 22 21 21 21 22 23 25 26 27 26 24 25 26 27 29 28 28 29 33 44 70 79 92 100 100 100 100 100 100 98
44 44 49 55 45 43 50 45 42 36 31 29 25 22 20 20 19 20 20 22 24 26 28 29 30 29 31 31 32 33 46 64 75 74 95 100 100 100 100 100 100 100 85
65 57 50 47 48 50 55 60 59 58 54 49 40 32 28 26 24 23 23 22 22 23 24 26 27 29 35 38 43 54 65 81 100 100 100 100 100 100 100 100 100 97 85
91 86 76 62 55 56 57 56 66 75 70 61 56 47 41 39 37 31 27 26 26 28 27 28 28 34 40 48 61 74 83 100 100 100 100 100 100 100 100 100 95 94 84
92 93 95 90 82 72 69 67 69 79 78 72 72 62 55 52 47 46 46 42 41 44 44 49 50 55 69 83 92 84 85 95 100 100 100 100 100 100 100 99 89 91 88
76 82 92 94 90 78 72 70 72 81 84 79 87 83 70 64 59 68 70 64 61 64 70 73 77 82 87 93 99 100 100 100 100 97 98 100 98 88 78 88 90 87 83

GFSMW_250_rhum_060.txt.gz
RH
71 79 100 100 100 100 100 100 100 100 100 100 100 100 100 100 100 100 100 100 86 80 73 69 68 66 73 72 73 66 74 80 86 100 100 98 95 91 98 93 92 89 95
50 64 100 100 100 100 100 100 100 100 100 100 100 100 100 100 100 100 100 100 96 93 87 71 71 71 72 70 77 75 82 93 95 89 95 100 100 95 93 100 93 98 100
34 60 96 100 100 100 100 100 100 100 100 100 100 100 100 100 100 100 100 100 99 92 95 100 98 90 86 81 94 90 99 98 100 89 84 94 90 99 100 99 100 99 94
19 22 54 81 100 100 100 100 100 100 100 100 100 100 100 100 100 100 100 99 94 83 83 89 89 98 99 96 91 94 99 92 100 100 100 100 100 93 96 94 94 100 94
25 21 41 53 46 66 89 94 100 100 100 100 100 100 100 100 100 100 100 100 100 100 100 100 94 94 94 94 98 95 96 92 100 100 100 100 100 100 98 100 100 100 100
98 57 27 88 73 78 75 98 100 100 100 100 100 100 100 100 100 100 100 100 100 100 100 100 100 100 95 95 100 100 100 100 100 100 100 100 100 100 100 100 100 100 100
26 64 86 66 72 70 90 96 100 100 100 100 100 100 100 100 100 100 100 100 100 100 100 100 100 100 100 100 100 100 100 100 100 100 100 100 100 100 100 100 100 100 100
25 25 39 100 100 80 49 78 100 100 100 100 100 100 100 100 100 100 100 100 100 100 100 100 100 100 100 100 100 100 100 100 100 100 100 100 100 100 100 100 100 100 100
28 24 26 27 90 100 100 71 55 83 100 100 100 100 100 100 100 100 100 100 100 100 100 100 100 100 100 100 100 100 100 100 100 100 100 100 100 100 100 100 100 100 100
30 31 29 26 26 33 81 100 100 85 66 87 100 100 100 100 100 100 100 100 100 100 100 100 100 100 100 100 100 100 100 100 100 100 100 100 100 100 100 100 100 100 100
27 28 30 32 28 27 28 30 50 85 88 56 42 58 63 73 84 84 84 81 75 68 68 84 96 100 100 100 100 100 100 100 100 100 100 100 100 100 100 100 100 100 100
28 27 27 28 30 32 29 27 26 27 28 29 29 26 26 23 24 24 25 26 25 23 26 31 39 40 50 69 85 95 100 100 100 100 100 100 100 100 100 100 100 95 90
20 19 21 24 26 28 31 32 30 28 26 26 26 27 27 26 23 22 22 23 21 20 21 22 25 28 41 38 49 67 74 93 100 100 100 100 100 100 100 100 95 86 63
18 17 17 17 19 23 26 28 29 30 30 28 27 27 26 27 26 24 23 22 22 21 23 23 27 27 31 32 44 57 76 94 100 99 100 100 97 92 84 78 68 63 58
21 19 17 16 16 16 19 20 22 23 25 28 30 29 30 28 26 26 26 26 26 25 25 26 26 24 24 38 45 56 71 83 88 90 79 78 82 92 51 63 65 45 36
22 19 18 16 16 16 16 17 18 18 18 20 21 25 28 30 28 27 28 28 28 29 29 28 31 30 33 34 42 46 42 47 55 51 64 62 72 60 57 53 41 43 33
23 21 19 19 18 19 19 19 19 18 17 18 19 22 24 26 31 33 30 30 32 32 32 31 50 51 56 40 40 39 40 33 41 49 46 57 59 61 44 35 37 35 39
24 24 25 24 23 22 24 20 19 20 21 22 23 23 24 24 24 25 30 33 34 34 34 34 36 60 59 44 47 40 26 28 34 34 46 45 36 35 33 30 30 35 58
44 38 32 31 29 23 23 22 21 22 24 24 23 25 26 25 25 25 26 27 29 29 30 31 30 29 30 30 29 27 26 25 24 24 25 25 27 30 34 32 39 71 100
38 36 36 36 33 33 31 25 23 22 22 25 26 25 25 26 25 24 24 24 24 23 24 25 27 28 28 29 28 26 25 25 24 24 24 24 26 32 35 48 80 100 100
44 39 30 30 27 31 32 32 33 30 28 28 26 26 25 25 24 24 23 23 23 23 24 25 26 26 28 29 30 29 28 28 26 26 30 33 37 42 64 79 100 98 100
56 49 47 45 46 40 38 34 29 30 32 30 28 27 26 25 24 22 20 20 20 20 22 23 24 26 29 32 35 36 38 35 36 40 44 49 59 87 100 100 100 100 100
67 74 67 55 56 59 59 60 47 45 44 39 39 36 32 30 26 27 26 25 23 23 23 23 23 23 24 28 33 38 40 42 54 49 54 94 100 100 100 100 100 100 100
45 54 66 75 74 67 62 59 54 55 57 55 50 46 46 44 44 40 37 32 29 30 28 28 28 26 26 31 35 38 47 54 65 82 100 100 100 100 100 100 97 100 100
36 39 50 63 67 70 72 75 71 68 63 59 61 66 64 61 69 72 62 52 52 48 44 44 41 40 38 43 45 53 64 77 81 96 100 100 100 100 100 97 96 97 94
50 42 43 49 60 72 72 70 72 77 79 70 69 77 84 84 87 90 84 76 74 72 65 67 68 71 70 74 72 77 85 86 96 100 100 100 99 94 92 94 88 90 88

GFSMW_250_rhum_063.txt.gz
RH
86 100 100 100 100 100 100 100 100 100 100 100 100 100 100 100 100 96 100 100 100 100 100 100 100 100 100 100 100 100 96 84 83 81 74 83 99 87 91 84 88 93 88
52 97 100 100 100 100 100 100 100 100 100 100 100 100 100 100 100 100 100 100 100 100 100 100 100 100 100 100 96 95 94 93 95 85 88 91 100 93 92 89 85 88 100
23 50 94 100 100 100 100 100 100 100 100 100 100 100 100 100 97 94 100 100 100 100 100 100 100 100 100 97 90 95 87 82 86 82 62 71 84 100 100 100 100 100 100
19 18 21 30 65 100 100 100 100 100 98 100 100 100 100 100 100 100 100 100 100 100 99 100 100 98 100 97 96 82 82 77 74 77 86 86 87 91 100 100 100 100 100
22 20 21 22 25 42 69 100 100 100 100 99 92 99 100 100 100 100 100 100 100 100 100 100 100 100 100 94 88 92 90 86 84 87 82 84 91 100 100 100 100 100 100
58 26 27 27 32 35 37 57 86 100 100 100 100 100 100 100 100 100 100 100 100 100 100 100 100 100 100 100 100 100 100 100 100 100 100 100 100 92 86 100 100 100 100
51 86 62 77 58 49 41 54 72 81 99 100 100 100 100 100 100 100 100 95 100 100 100 100 100 100 100 100 100 100 100 100 98 97 95 98 100 100 100 100 100 100 100
35 32 90 100 90 72 59 50 55 54 62 80 90 100 100 100 100 100 100 100 100 100 100 100 100 100 100 100 100 100 100 100 100 100 100 100 100 100 100 100 100 100 100
33 32 33 91 100 100 66 50 47 53 52 46 50 58 69 84 94 100 100 100 100 100 100 100 100 100 100 100 100 100 100 100 100 100 100 100 100 100 100 100 100 100 100
32 35 35 36 39 100 100 100 100 86 67 62 68 60 59 60 68 66 58 62 87 98 98 98 97 97 100 100 100 100 100 100 100 100 97 100 100 100 99 100 100 100 98
34 32 34 38 39 37 65 100 100 100 100 100 100 91 62 50 58 67 75 75 81 81 78 87 90 99 100 98 89 96 100 100 100 93 83 57 54 64 60 69 78 90 96
35 33 32 35 39 41 37 33 34 36 36 34 35 72 100 100 92 61 55 49 64 83 87 82 85 79 79 76 67 49 42 38 28 26 37 32 37 46 42 61 79 100 100
33 32 32 32 33 38 40 38 34 32 31 30 29 30 31 41 56 62 75 88 82 75 64 56 41 37 30 26 25 26 26 26 24 27 26 33 35 47 57 68 85 94 94
20 22 26 28 29 30 30 32 36 37 37 36 34 33 32 30 28 28 28 29 28 28 26 28 28 27 26 24 23 24 25 25 25 25 31 36 39 42 57 77 72 71 86
20 17 17 19 22 27 30 30 29 28 28 30 33 35 36 36 36 34 30 28 29 28 28 27 26 26 26 27 27 27 24 24 26 30 32 34 33 43 49 67 83 69 54
24 22 18 17 16 16 18 20 23 25 26 26 26 25 25 26 28 30 30 29 29 29 31 31 30 29 29 28 29 29 29 30 32 32 30 32 31 31 47 48 43 50 43
21 22 22 20 20 19 16 17 18 18 18 18 18 19 20 21 22 24 25 26 26 28 31 31 34 32 31 30 30 31 29 30 30 33 30 34 44 54 38 46 35 47 35
23 23 23 22 22 23 24 21 21 22 21 20 20 18 17 16 17 17 18 19 20 20 23 27 29 32 33 33 32 29 27 27 32 34 34 35 38 41 45 39 34 30 32
53 53 49 45 41 40 43 40 32 28 23 21 20 18 19 20 19 19 18 18 19 19 19 20 22 23 25 26 27 27 27 29 36 40 39 34 33 34 35 32 28 30 28
49 46 52 50 45 40 37 37 36 31 29 26 24 25 24 23 23 24 22 22 22 22 21 21 20 20 21 23 24 26 27 28 29 30 30 32 35 36 34 34 33 30 33
39 43 39 32 30 33 34 34 34 36 33 34 34 31 28 28 27 25 24 24 23 22 22 21 21 22 23 23 24 25 28 28 28 29 30 35 41 45 44 39 39 41 45
65 56 49 51 47 41 40 38 29 29 30 30 32 32 32 32 31 29 27 25 24 24 24 24 24 23 23 23 23 24 25 26 28 32 37 44 48 50 48 47 50 62 77
66 89 90 88 76 70 62 55 44 35 35 38 37 38 40 38 36 30 28 29 29 28 29 28 28 28 27 26 25 26 26 28 30 31 37 41 46 56 61 68 73 83 100
69 64 59 67 67 80 77 76 75 66 53 47 46 46 43 42 40 39 45 44 45 49 42 42 38 35 38 39 36 35 35 36 39 41 47 48 51 67 79 82 86 100 99
57 66 65 64 56 51 60 66 68 77 81 82 76 66 61 61 61 55 53 62 66 68 68 61 55 51 53 56 50 51 51 49 51 53 57 66 80 86 89 89 86 92 98
54 62 68 64 67 67 56 50 53 75 84 87 84 85 85 78 71 70 69 79 82 84 87 79 74 70 70 75 73 78 77 80 87 83 89 91 94 96 97 98 100 100 100

GFSMW_250_rhum_066.txt.gz
RH
100 100 100 100 100 100 100 100 99 100 83 83 96 100 100 100 98 89 76 88 84 93 100 100 100 100 100 100 100 100 100 100 98 100 100 100 100 95 81 77 81 70 79
100 100 100 100 100 100 100 100 100 100 100 80 80 100 100 100 100 100 100 100 98 100 100 100 100 100 100 100 100 100 100 100 100 100 94 100 100 85 87 73 74 82 86
100 100 100 100 100 100 100 100 100 100 100 100 100 100 100 100 100 100 98 100 100 95 91 95 92 100 100 100 100 97 98 93 94 100 100 93 85 81 91 90 96 88 90
81 100 100 100 100 100 100 98 100 100 100 94 98 100 100 100 100 100 100 100 99 100 100 100 100 100 100 100 100 100 100 95 90 82 72 88 100 100 100 100 100 100 100
25 42 78 100 100 100 100 100 100 100 100 100 97 100 100 100 100 100 100 100 100 100 100 100 100 98 98 76 99 98 100 98 100 100 97 99 100 98 100 100 96 78 94
28 25 32 59 92 100 100 100 100 100 100 100 100 100 100 100 100 100 100 100 100 100 100 87 86 64 67 79 86 84 82 92 100 100 100 100 100 100 100 100 100 100 100
41 43 26 25 28 35 75 100 100 100 100 100 100 100 100 100 100 100 100 100 100 100 100 100 100 100 100 99 98 89 100 99 99 100 100 100 100 100 100 100 100 100 100
40 40 74 39 26 24 24 42 62 79 100 100 100 100 100 100 100 100 100 100 100 100 100 100 100 100 100 100 100 98 98 100 100 100 99 91 100 100 100 100 100 100 100
40 42 37 37 35 31 27 24 23 29 74 97 97 97 98 100 100 100 100 100 100 100 100 100 100 100 96 89 91 98 100 99 100 100 100 100 100 100 99 100 100 100 100
30 38 44 42 37 35 35 30 26 26 25 26 28 30 29 34 46 66 82 98 100 100 100 100 100 100 100 100 100 99 92 85 83 81 79 86 100 99 96 90 96 85 38
24 32 41 47 48 44 39 39 58 58 36 39 44 52 51 61 62 62 70 70 60 70 80 80 71 68 68 74 67 64 68 59 59 74 85 91 88 78 70 57 36 29 27
30 32 36 40 47 46 46 44 38 38 63 100 100 99 85 76 73 63 62 66 63 55 56 56 52 51 52 60 63 64 54 56 58 80 57 34 31 29 29 29 29 29 31
30 30 32 36 35 38 42 43 43 42 39 39 64 80 100 100 100 100 100 92 76 86 99 100 100 100 83 60 74 96 100 98 71 31 29 28 27 29 31 33 32 34 34
26 28 28 30 32 32 30 31 37 40 40 41 41 40 38 44 49 67 91 100 100 100 100 97 78 42 30 28 28 29 30 29 29 30 31 31 33 32 32 34 33 34 36
19 21 22 24 24 28 30 32 34 35 36 36 36 38 40 39 40 41 40 38 37 35 33 32 31 31 31 31 32 33 35 36 35 34 34 34 35 36 36 36 35 34 37
22 19 18 19 20 22 23 26 29 31 32 35 36 35 35 36 38 40 40 40 40 41 41 41 39 39 39 38 37 37 36 37 36 34 34 34 32 34 35 34 36 36 33
25 24 23 22 20 21 20 19 19 19 20 20 22 26 30 33 34 34 35 35 34 33 32 32 32 31 29 28 27 26 26 28 29 30 30 29 29 32 34 33 31 39 36
21 21 21 22 22 22 22 22 18 17 19 20 22 24 23 23 24 24 26 26 27 27 26 24 22 21 20 19 18 18 18 20 21 22 22 25 28 29 27 30 30 36 37
42 40 33 32 28 25 27 32 34 30 29 28 27 25 23 21 21 21 20 20 19 18 18 18 17 17 18 18 18 17 17 17 19 20 21 22 23 24 28 30 36 44 36
56 53 47 48 58 54 52 50 51 44 34 32 28 26 24 20 18 17 17 17 17 18 17 17 17 18 19 19 19 18 17 17 17 17 18 20 22 24 25 28 32 33 39
46 46 42 35 37 40 39 41 44 45 38 35 35 32 32 31 28 27 26 25 24 23 21 21 20 21 21 20 21 20 20 20 20 20 21 22 23 24 26 30 37 42 41
48 52 58 51 40 32 29 29 30 34 36 35 33 34 33 33 34 35 34 34 32 31 30 28 28 28 29 28 26 24 23 22 21 20 21 22 25 26 28 31 36 42 53
39 44 52 52 49 58 57 51 41 37 36 36 35 33 34 33 30 29 29 30 29 28 30 32 33 37 36 37 35 32 30 29 29 28 27 27 29 33 36 42 53 63 73
42 50 53 59 52 50 49 51 52 58 64 68 71 69 59 49 44 42 45 48 44 41 45 50 53 62 56 56 51 45 38 35 37 40 40 38 38 47 59 68 76 86 89
31 39 51 60 59 62 70 74 65 61 59 59 60 69 76 77 76 71 63 62 57 54 52 56 66 74 74 74 64 58 52 54 55 54 60 68 70 72 78 78 79 87 93
27 28 36 52 60 67 64 67 77 74 73 66 57 55 63 76 82 88 90 87 79 83 77 77 78 83 82 80 75 73 76 75 73 70 68 76 85 90 91 93 94 92 91